KHB103 UHHH-UHMM

Flight info

Callsign KHB103
Flight time N/A
Altitude 37000
Route TOMSU2U TOMSU N222 NA L160 BANOT BANOT5J
Aircraft A320/M-SDE3FGHIRWY/LB1

Departure

Time 2026-04-23 01:38
Airport Khabarovsk Novy Airport (UHHH)

Arrival

Time N/A
Airport Sokol Airport (UHMM)
Time Latitude Longitude Altitude Speed Heading
2026-04-23 01:28 48.52324 135.17183 247 ft 0 kts 311°
2026-04-23 01:32 48.52332 135.17172 247 ft 6 kts 320°
2026-04-23 01:33 48.52369 135.17177 247 ft 5 kts 25°
2026-04-23 01:33 48.52394 135.17205 247 ft 4 kts 40°
2026-04-23 01:33 48.52414 135.17231 246 ft 3 kts 41°
2026-04-23 01:33 48.52429 135.17252 246 ft 3 kts 41°
2026-04-23 01:34 48.52443 135.17270 246 ft 5 kts 43°
2026-04-23 01:34 48.52485 135.17329 246 ft 9 kts 42°
2026-04-23 01:34 48.52505 135.17401 245 ft 7 kts 96°
2026-04-23 01:34 48.52483 135.17461 245 ft 6 kts 128°
2026-04-23 01:35 48.52457 135.17507 245 ft 5 kts 130°
2026-04-23 01:35 48.52437 135.17542 245 ft 4 kts 130°
2026-04-23 01:35 48.52414 135.17580 246 ft 6 kts 134°
2026-04-23 01:35 48.52389 135.17619 246 ft 4 kts 133°
2026-04-23 01:36 48.52366 135.17657 246 ft 9 kts 133°
2026-04-23 01:36 48.52315 135.17742 246 ft 10 kts 132°
2026-04-23 01:36 48.52271 135.17815 247 ft 8 kts 132°
2026-04-23 01:36 48.52235 135.17876 246 ft 9 kts 131°
2026-04-23 01:37 48.52194 135.17946 245 ft 9 kts 132°
2026-04-23 01:37 48.52147 135.18025 242 ft 11 kts 132°
2026-04-23 01:37 48.52111 135.18114 243 ft 9 kts 95°
2026-04-23 01:37 48.52213 135.18286 243 ft 51 kts 42°
2026-04-23 01:38 48.52652 135.18874 247 ft 114 kts 43°
2026-04-23 01:38 48.53370 135.19816 269 ft 157 kts 39°
2026-04-23 01:38 48.54114 135.20994 900 ft 152 kts 51°
2026-04-23 01:38 48.54837 135.22163 1604 ft 153 kts 41°
2026-04-23 01:39 48.55649 135.23236 2180 ft 162 kts 41°
2026-04-23 01:39 48.56558 135.24418 2527 ft 184 kts 41°
2026-04-23 01:39 48.57585 135.25765 2882 ft 205 kts 41°
2026-04-23 01:39 48.58712 135.27256 3308 ft 225 kts 41°
2026-04-23 01:40 48.59941 135.28901 3815 ft 244 kts 42°
2026-04-23 01:40 48.61224 135.30637 4657 ft 250 kts 42°
2026-04-23 01:40 48.62527 135.32407 5552 ft 254 kts 43°
2026-04-23 01:40 48.63849 135.34208 6453 ft 257 kts 43°
2026-04-23 01:41 48.65185 135.36033 7298 ft 261 kts 43°
2026-04-23 01:41 48.66536 135.37884 8142 ft 264 kts 43°
2026-04-23 01:41 48.67905 135.39764 8988 ft 268 kts 43°
2026-04-23 01:41 48.69295 135.41675 9839 ft 271 kts 44°
2026-04-23 01:42 48.70710 135.43625 10404 ft 284 kts 44°
2026-04-23 01:42 48.72228 135.45726 10635 ft 307 kts 44°
2026-04-23 01:42 48.73864 135.47993 10914 ft 327 kts 44°
2026-04-23 01:42 48.75562 135.50342 11548 ft 333 kts 44°
2026-04-23 01:43 48.77220 135.52701 12252 ft 337 kts 46°
2026-04-23 01:43 48.78922 135.55291 12996 ft 341 kts 47°
2026-04-23 01:43 48.80575 135.57904 13723 ft 344 kts 48°
2026-04-23 01:43 48.82227 135.60550 14360 ft 348 kts 48°
2026-04-23 01:44 48.83899 135.63228 14994 ft 351 kts 48°
2026-04-23 01:44 48.85589 135.65915 15627 ft 354 kts 47°
2026-04-23 01:44 48.87304 135.68628 16261 ft 357 kts 47°
2026-04-23 01:44 48.89011 135.71321 16880 ft 360 kts 47°
2026-04-23 01:45 48.90783 135.74109 17518 ft 363 kts 47°
2026-04-23 01:45 48.92546 135.76883 18140 ft 367 kts 47°
2026-04-23 01:45 48.94324 135.79685 18721 ft 369 kts 48°
2026-04-23 01:45 48.96111 135.82507 19297 ft 371 kts 48°
2026-04-23 01:46 48.97880 135.85302 19873 ft 373 kts 49°
2026-04-23 01:46 48.99695 135.88130 20460 ft 374 kts 48°
2026-04-23 01:46 49.01543 135.90943 21037 ft 376 kts 48°
2026-04-23 01:46 49.03403 135.93749 21586 ft 378 kts 48°
2026-04-23 01:47 49.05273 135.96571 22130 ft 379 kts 49°
2026-04-23 01:47 49.07150 135.99410 22671 ft 380 kts 49°
2026-04-23 01:47 49.09029 136.02258 23196 ft 382 kts 49°
2026-04-23 01:47 49.10914 136.05123 23667 ft 383 kts 49°
2026-04-23 01:48 49.12808 136.08006 24053 ft 385 kts 50°
2026-04-23 01:48 49.14706 136.10900 24424 ft 387 kts 50°
2026-04-23 01:48 49.16613 136.13819 24790 ft 389 kts 50°
2026-04-23 01:48 49.18529 136.16753 25150 ft 391 kts 50°
2026-04-23 01:49 49.20453 136.19704 25501 ft 393 kts 50°
2026-04-23 01:49 49.22376 136.22660 25842 ft 395 kts 50°
2026-04-23 01:49 49.24323 136.25661 26188 ft 396 kts 50°
2026-04-23 01:49 49.26271 136.28664 26524 ft 398 kts 50°
2026-04-23 01:50 49.28227 136.31682 26857 ft 400 kts 50°
2026-04-23 01:50 49.30190 136.34712 27195 ft 402 kts 50°
2026-04-23 01:50 49.32163 136.37761 27541 ft 403 kts 51°
2026-04-23 01:50 49.34137 136.40818 27863 ft 405 kts 51°
2026-04-23 01:51 49.36122 136.43892 28162 ft 406 kts 51°
2026-04-23 01:51 49.38087 136.46938 28450 ft 408 kts 51°
2026-04-23 01:51 49.40112 136.50085 28736 ft 409 kts 51°
2026-04-23 01:51 49.42101 136.53179 29021 ft 411 kts 51°
2026-04-23 01:52 49.44171 136.56262 29281 ft 416 kts 46°
2026-04-23 01:52 49.46494 136.58898 29529 ft 423 kts 40°
2026-04-23 01:52 49.48962 136.61399 29837 ft 423 kts 40°
2026-04-23 01:52 49.51405 136.63885 30176 ft 421 kts 40°
2026-04-23 01:53 49.53865 136.66401 30443 ft 421 kts 40°
2026-04-23 01:53 49.56294 136.68893 30673 ft 422 kts 40°
2026-04-23 01:53 49.58728 136.71394 30895 ft 423 kts 39°
2026-04-23 01:53 49.61177 136.73912 31130 ft 424 kts 39°
2026-04-23 01:54 49.63638 136.76440 31347 ft 425 kts 39°
2026-04-23 01:54 49.66100 136.78967 31575 ft 426 kts 39°
2026-04-23 01:54 49.68574 136.81508 31799 ft 427 kts 38°
2026-04-23 01:54 49.71043 136.84043 32026 ft 428 kts 38°
2026-04-23 01:55 49.73523 136.86594 32269 ft 428 kts 38°
2026-04-23 01:55 49.76006 136.89156 32500 ft 429 kts 38°
2026-04-23 01:55 49.78490 136.91730 32733 ft 430 kts 38°
2026-04-23 01:55 49.80974 136.94312 32964 ft 431 kts 38°
2026-04-23 01:56 49.83470 136.96904 33197 ft 432 kts 38°
2026-04-23 01:56 49.85969 136.99499 33430 ft 433 kts 37°
2026-04-23 01:56 49.88471 137.02100 33669 ft 433 kts 37°
2026-04-23 01:56 49.90975 137.04708 33909 ft 434 kts 37°
2026-04-23 01:57 49.93478 137.07322 34127 ft 435 kts 37°
2026-04-23 01:57 49.95995 137.09949 34333 ft 435 kts 37°
2026-04-23 01:57 49.98475 137.12537 34530 ft 436 kts 37°
2026-04-23 01:57 50.01021 137.15199 34718 ft 436 kts 37°
2026-04-23 01:58 50.03542 137.17840 34913 ft 437 kts 37°
2026-04-23 01:58 50.06034 137.20457 35002 ft 438 kts 37°
2026-04-23 01:58 50.11085 137.25780 35018 ft 439 kts 37°
2026-04-23 01:59 50.16115 137.31155 35028 ft 438 kts 38°
2026-04-23 01:59 50.21131 137.36539 35020 ft 437 kts 38°
2026-04-23 02:00 50.26139 137.41919 35017 ft 436 kts 38°
2026-04-23 02:00 50.31139 137.47303 35015 ft 436 kts 38°
2026-04-23 02:01 50.36132 137.52699 35025 ft 436 kts 38°
2026-04-23 02:01 50.41086 137.58184 35028 ft 435 kts 40°
2026-04-23 02:02 50.45865 137.63959 35030 ft 434 kts 41°
2026-04-23 02:02 50.50627 137.69864 35032 ft 434 kts 41°
2026-04-23 02:03 50.55365 137.75649 35029 ft 433 kts 41°
2026-04-23 02:03 50.60164 137.81464 35033 ft 433 kts 41°
2026-04-23 02:04 50.64908 137.87234 35027 ft 433 kts 41°
2026-04-23 02:04 50.69663 137.93041 35024 ft 432 kts 41°
2026-04-23 02:05 50.74425 137.98871 35025 ft 432 kts 41°
2026-04-23 02:05 50.78367 138.03702 35021 ft 432 kts 40°
2026-04-23 02:06 50.83909 138.10516 35017 ft 432 kts 40°
2026-04-23 02:06 50.87865 138.15391 35016 ft 433 kts 40°
2026-04-23 02:07 50.92660 138.21134 35016 ft 434 kts 36°
2026-04-23 02:07 50.98571 138.27218 35018 ft 435 kts 36°
2026-04-23 02:08 51.03651 138.32470 35023 ft 435 kts 36°
2026-04-23 02:08 51.07891 138.36857 35028 ft 436 kts 36°
2026-04-23 02:09 51.12949 138.42108 35031 ft 437 kts 36°
2026-04-23 02:09 51.18061 138.47442 35038 ft 437 kts 36°
2026-04-23 02:10 51.23158 138.52752 35046 ft 437 kts 36°
2026-04-23 02:10 51.28211 138.58039 35050 ft 437 kts 36°
2026-04-23 02:11 51.33319 138.63396 35052 ft 437 kts 36°
2026-04-23 02:11 51.38407 138.68757 35047 ft 437 kts 36°
2026-04-23 02:12 51.43473 138.74099 35051 ft 437 kts 36°
2026-04-23 02:12 51.48545 138.79446 35053 ft 437 kts 36°
2026-04-23 02:13 51.53630 138.84838 35058 ft 437 kts 36°
2026-04-23 02:13 51.58705 138.90239 35064 ft 437 kts 36°
2026-04-23 02:14 51.63780 138.95666 35063 ft 437 kts 36°
2026-04-23 02:14 51.68821 139.01065 35074 ft 437 kts 36°
2026-04-23 02:15 51.76421 139.09222 35066 ft 436 kts 36°
2026-04-23 02:16 51.81439 139.14614 35069 ft 436 kts 36°
2026-04-23 02:16 51.86485 139.20057 35069 ft 436 kts 36°
2026-04-23 02:17 51.91511 139.25501 35074 ft 436 kts 36°
2026-04-23 02:17 51.96554 139.30975 35076 ft 436 kts 36°
2026-04-23 02:18 52.01591 139.36461 35079 ft 436 kts 36°
2026-04-23 02:18 52.06613 139.41955 35080 ft 436 kts 36°
2026-04-23 02:19 52.11661 139.47488 35084 ft 436 kts 36°
2026-04-23 02:19 52.16661 139.52963 35087 ft 435 kts 36°
2026-04-23 02:20 52.21677 139.58484 35086 ft 435 kts 37°
2026-04-23 02:20 52.26701 139.64032 35086 ft 435 kts 37°
2026-04-23 02:21 52.31696 139.69557 35082 ft 434 kts 37°
2026-04-23 02:21 52.36701 139.75114 35081 ft 434 kts 37°
2026-04-23 02:22 52.41699 139.80685 35085 ft 434 kts 37°
2026-04-23 02:22 52.46682 139.86260 35090 ft 435 kts 37°
2026-04-23 02:23 52.51676 139.91848 35088 ft 435 kts 37°
2026-04-23 02:23 52.56670 139.97443 35094 ft 435 kts 37°
2026-04-23 02:24 52.61675 140.03094 35093 ft 434 kts 37°
2026-04-23 02:24 52.66617 140.08798 35095 ft 433 kts 38°
2026-04-23 02:25 52.71453 140.14711 35098 ft 433 kts 39°
2026-04-23 02:25 52.76264 140.20674 35103 ft 433 kts 39°
2026-04-23 02:26 52.81078 140.26595 35106 ft 433 kts 39°
2026-04-23 02:26 52.85927 140.32525 35103 ft 433 kts 39°
2026-04-23 02:27 52.90765 140.38461 35112 ft 434 kts 39°
2026-04-23 02:27 52.95642 140.44470 35114 ft 433 kts 39°
2026-04-23 02:28 53.00469 140.50445 35116 ft 433 kts 39°
2026-04-23 02:28 53.05271 140.56412 35118 ft 433 kts 39°
2026-04-23 02:29 53.10092 140.62401 35123 ft 433 kts 39°
2026-04-23 02:29 53.14942 140.68415 35127 ft 433 kts 37°
2026-04-23 02:30 53.20038 140.73734 35137 ft 434 kts 34°
2026-04-23 02:30 53.25193 140.79038 35142 ft 434 kts 34°
2026-04-23 02:31 53.30324 140.84327 35141 ft 434 kts 34°
2026-04-23 02:31 53.35466 140.89652 35145 ft 433 kts 34°
2026-04-23 02:32 53.40567 140.94949 35149 ft 433 kts 34°
2026-04-23 02:32 53.45690 141.00288 35148 ft 432 kts 34°
2026-04-23 02:33 53.50770 141.05587 35149 ft 432 kts 34°
2026-04-23 02:33 53.55877 141.10927 35148 ft 432 kts 34°
2026-04-23 02:34 53.60960 141.16266 35148 ft 431 kts 34°
2026-04-23 02:34 53.66039 141.21621 35149 ft 431 kts 34°
2026-04-23 02:35 53.71136 141.26996 35154 ft 431 kts 34°
2026-04-23 02:35 53.76218 141.32356 35155 ft 431 kts 34°
2026-04-23 02:36 53.81302 141.37751 35154 ft 431 kts 34°
2026-04-23 02:36 53.86379 141.43184 35156 ft 430 kts 34°
2026-04-23 02:37 53.91411 141.48569 35160 ft 430 kts 34°
2026-04-23 02:37 53.96461 141.53975 35157 ft 429 kts 34°
2026-04-23 02:38 54.01501 141.59392 35157 ft 429 kts 34°
2026-04-23 02:38 54.06552 141.64830 35157 ft 429 kts 34°
2026-04-23 02:39 54.11598 141.70281 35155 ft 429 kts 34°
2026-04-23 02:39 54.16625 141.75731 35157 ft 429 kts 34°
2026-04-23 02:40 54.21643 141.81167 35161 ft 428 kts 34°
2026-04-23 02:40 54.26655 141.86634 35164 ft 428 kts 34°
2026-04-23 02:41 54.31686 141.92147 35163 ft 428 kts 34°
2026-04-23 02:41 54.36706 141.97658 35169 ft 428 kts 34°
2026-04-23 02:42 54.41711 142.03153 35168 ft 427 kts 34°
2026-04-23 02:42 54.46718 142.08676 35171 ft 427 kts 34°
2026-04-23 02:43 54.51708 142.14205 35174 ft 427 kts 34°
2026-04-23 02:43 54.56704 142.19757 35177 ft 427 kts 34°
2026-04-23 02:44 54.61689 142.25304 35172 ft 427 kts 34°
2026-04-23 02:44 54.66645 142.30840 35172 ft 427 kts 34°
2026-04-23 02:45 54.71640 142.36437 35168 ft 427 kts 34°
2026-04-23 02:45 54.76610 142.42005 35169 ft 427 kts 34°
2026-04-23 02:46 54.81584 142.47597 35167 ft 426 kts 34°
2026-04-23 02:46 54.86564 142.53234 35166 ft 426 kts 34°
2026-04-23 02:47 54.91509 142.58846 35172 ft 426 kts 34°
2026-04-23 02:47 54.96486 142.64507 35168 ft 426 kts 34°
2026-04-23 02:48 55.01452 142.70151 35171 ft 426 kts 34°
2026-04-23 02:48 55.06407 142.75822 35175 ft 426 kts 34°
2026-04-23 02:49 55.11364 142.81514 35178 ft 426 kts 34°
2026-04-23 02:49 55.16301 142.87190 35181 ft 426 kts 34°
2026-04-23 02:50 55.21228 142.92872 35179 ft 426 kts 34°
2026-04-23 02:50 55.26166 142.98636 35177 ft 426 kts 35°
2026-04-23 02:51 55.31064 143.04425 35172 ft 426 kts 35°
2026-04-23 02:51 55.35997 143.10268 35183 ft 426 kts 35°
2026-04-23 02:52 55.40098 143.15126 35180 ft 425 kts 34°
2026-04-23 02:52 55.44971 143.20917 35181 ft 425 kts 34°
2026-04-23 02:53 55.49866 143.26750 35185 ft 425 kts 34°
2026-04-23 02:53 55.54782 143.32622 35173 ft 425 kts 34°
2026-04-23 02:54 55.60480 143.39452 35175 ft 425 kts 35°
2026-04-23 02:54 55.64584 143.44385 35176 ft 425 kts 35°
2026-04-23 02:55 55.69430 143.50234 35185 ft 424 kts 35°
2026-04-23 02:55 55.74324 143.56151 35177 ft 424 kts 34°
2026-04-23 02:56 55.79177 143.62031 35181 ft 425 kts 34°
2026-04-23 02:56 55.84076 143.68000 35182 ft 424 kts 35°
2026-04-23 02:57 55.88931 143.73935 35177 ft 424 kts 35°
2026-04-23 02:57 55.93800 143.79905 35173 ft 424 kts 35°
2026-04-23 02:58 55.98660 143.85872 35179 ft 424 kts 35°
2026-04-23 02:58 56.03513 143.91867 35173 ft 424 kts 35°
2026-04-23 02:59 56.08374 143.97872 35175 ft 424 kts 35°
2026-04-23 02:59 56.13223 144.03882 35177 ft 424 kts 35°
2026-04-23 03:00 56.18045 144.09874 35181 ft 424 kts 35°
2026-04-23 03:00 56.22887 144.15920 35174 ft 424 kts 35°
2026-04-23 03:01 56.27719 144.21989 35178 ft 424 kts 35°
2026-04-23 03:01 56.32543 144.28095 35179 ft 424 kts 36°
2026-04-23 03:02 56.37340 144.34284 35165 ft 424 kts 36°
2026-04-23 03:02 56.42120 144.40495 35168 ft 423 kts 36°
2026-04-23 03:03 56.46904 144.46719 35169 ft 423 kts 36°
2026-04-23 03:03 56.51692 144.52942 35158 ft 424 kts 36°
2026-04-23 03:04 56.56481 144.59194 35167 ft 424 kts 36°
2026-04-23 03:04 56.61259 144.65446 35169 ft 424 kts 36°
2026-04-23 03:05 56.66049 144.71753 35166 ft 424 kts 36°
2026-04-23 03:05 56.70819 144.78056 35157 ft 424 kts 36°
2026-04-23 03:06 56.75570 144.84339 35161 ft 424 kts 36°
2026-04-23 03:06 56.80349 144.90667 35158 ft 425 kts 36°
2026-04-23 03:07 56.85148 144.97039 35156 ft 425 kts 36°
2026-04-23 03:07 56.89911 145.03411 35163 ft 425 kts 36°
2026-04-23 03:08 56.94660 145.09782 35157 ft 425 kts 36°